Regional Weather Roundup
Issued by NWS

Home | Current Version | Previous Version | Graphics & Text | Print | Product List | Glossary On
Versions: 1 2 3 4 5 6 7 8 9 10 11 12 13 14 15 16 17 18 19 20 21 22 23 24 25 26 27 28 29 30 31 32 33 34 35 36 37 38 39 40 41 42 43 44 45 46 47 48 49 50
000
ASUS45 KTFX 291810
RWRMT
MONTANA REGIONAL WEATHER ROUNDUP
NATIONAL WEATHER SERVICE GREAT FALLS MT
1200 PM MDT SAT APR 29 2017

NOTE: "FAIR" INDICATES FEW OR NO CLOUDS BELOW 12000 FEET WITH NO
SIGNIFICANT WEATHER AND/OR OBSTRUCTIONS TO VISIBILITY.

MTZ001>007-043-291900-
WEST OF THE DIVIDE

CITY           SKY/WX    TMP DP  RH WIND       PRES   REMARKS
KALISPELL      LGT RAIN  47  39  74 S8        30.21F
MISSOULA       SUNNY     49  32  52 E6        30.26F
BUTTE          SUNNY     44  21  40 VRB6      30.21S
MULLAN PASS    PTSUNNY   36  31  82 VRB3      30.20F
ANACONDA         N/A     46  21  36 NE6       30.20F
DEER LODGE       N/A     46  27  46 E6        30.25S
EUREKA           N/A     52  36  54 SE6       30.19F
HAMILTON         N/A     52  23  32 NE7       30.23F
LIBBY            N/A     54  36  50 CALM      30.19F
PLAINS           N/A     53  38  56 CALM      30.22F
$$

MTZ008-052>055-291900-
SOUTHWEST MONTANA

CITY           SKY/WX    TMP DP  RH WIND       PRES   REMARKS
BOZEMAN        CLOUDY    47  31  53 CALM      30.22F
DILLON         SUNNY     47  25  42 S7        30.20F
W YELLOWSTONE  MOSUNNY   37  16  41 SW3       30.21S
THREE FORKS      N/A     51  10  19 SE2       30.18F
TWIN BRIDGES     N/A     48  24  39 CALM      30.18S
$$

MTZ009-010-012-014-046-048-049-054-291900-
EAST SLOPES AND CENTRAL MONTANA

CITY           SKY/WX    TMP DP  RH WIND       PRES   REMARKS
CUT BANK       PTSUNNY   51  25  36 SW12      30.14S
GREAT FALLS    PTSUNNY   52  29  41 SW9       30.18S
MALMSTROM AFB  PTSUNNY   51  30  43 W12       30.18F
HELENA         SUNNY     54  25  32 W13G21    30.20S
AUGUSTA        PTSUNNY   50  22  33 S9        30.16S
BOWMANS CRNR   PTSUNNY   46  24  42 W3        30.15F
CHOTEAU          N/A     54  25  32 W8        30.17F
FAIRFIELD        N/A     51  27  38 SW7       30.15F
POWER          PTSUNNY   48  25  40 W5        30.16F
RAYNESFORD       N/A     49  31  49 SW12G21   30.18S
ULM              N/A     51  32  48 SW8       30.18F
$$

MTZ011-013-016-021-045-047-050-051-291900-
NORTH CENTRAL MONTANA

CITY           SKY/WX    TMP DP  RH WIND       PRES   REMARKS
HAVRE          PTSUNNY   55  35  47 SW17      30.16F
LEWISTOWN      PTSUNNY   51  31  46 VRB3      30.18F
CHINOOK          N/A     55  28  35 S6        30.16F
DENTON           N/A     52  35  51 MISG      30.15F
FORT BENTON      N/A     57  30  35 MISG      30.19S
GEYSER         PTSUNNY   50  33  51 W13       30.17S
GRASS RANGE      N/A     48  33  55 E7        30.15F
JUDITH GAP     PTSUNNY   46  34  61 S18       30.19S
STANFORD       PTSUNNY   48  26  42 NW5       30.17S
WINIFRED         N/A     51  33  50 W8        30.17F
$$

MTZ017>020-022>027-061-062-291900-
NORTHEAST MONTANA

CITY           SKY/WX    TMP DP  RH WIND       PRES   REMARKS
GLASGOW        MOSUNNY   56  29  35 S12G17    30.23F
JORDAN           N/A     55  34  45 VRB5      30.22F
SIDNEY         SUNNY     56  34  43 SW5       30.25F
WOLF POINT     MOSUNNY   58  32  37 W8        30.24F
PLENTYWOOD       N/A     54  27  35 W10       30.23F
POPLAR           N/A     55  30  38 W10       30.25F
SCOBEY           N/A     55  26  32 S5        30.19F
$$

MTZ028>42-056>058-291900-
SOUTHCENTRAL AND SOUTHEAST MONTANA

CITY           SKY/WX    TMP DP  RH WIND       PRES   REMARKS
BAKER          PTSUNNY   54  25  32 NW6       30.26F
BILLINGS       MOSUNNY   47  32  56 VRB5      30.25F
LIVINGSTON     SUNNY     49  30  48 W6        30.20F
MILES CITY     MOSUNNY   57  32  38 SW14      30.25F
BIG TIMBER     SUNNY     46  32  57 E5        30.24S
LAUREL           N/A     48  31  52 S2        30.21F
ROUNDUP          N/A     53  30  41 SE13      30.12F
$$

REGIONAL REPORTS...DAKOTAS

CITY           SKY/WX    TMP DP  RH WIND       PRES   REMARKS
WILLISTON      SUNNY     59  31  34 VRB3      30.25F
MINOT          MOSUNNY   62  24  23 SW16G24   30.23S
DICKINSON      SUNNY     57  17  21 S8G17     30.23F
BEACH            N/A     57  27  30 W10       30.28S
TIOGA            N/A     55  28  35 VRB5G14   30.24F
WATFORD CITY   PTSUNNY   55  32  41 VRB5G15   30.24S
BISMARCK       CLOUDY    61  19  19 CALM      30.29F
GRAND FORKS    MOSUNNY   56  23  27 S3        30.33S
FARGO          SUNNY     55  18  23 VRB3      30.32F
BUFFALO SD       N/A     52  17  25 MISG      30.20F
RAPID CITY     SUNNY     51  19  28 NE8       30.26F
$$

REGIONAL REPORTS...WYOMING/IDAHO/WASHINGTON

CITY           SKY/WX    TMP DP  RH WIND       PRES   REMARKS
GILLETTE       SUNNY     37  29  72 SW8       30.29S WCI  31
SHERIDAN       SUNNY     42  28  57 SE12      30.28S
BUFFALO WY     SUNNY     37  25  61 S12       30.28R WCI  29
CODY           PTSUNNY   40  28  62 S6        30.26S
YELLOWSTONE LA   N/A     34  16  47 VRB3      30.22S
IDAHO FALLS    MOSUNNY   48  28  46 NE7       30.23F
SALMON         SUNNY     48  28  46 NE3       30.22F
BOISE          SUNNY     52  28  39 NW8       30.27R
SPOKANE        MOSUNNY   52  35  52 SW10      30.22F
$$

REGIONAL REPORTS...ALBERTA

CITY           SKY/WX    TMP DP  RH WIND       PRES   REMARKS
EDMONTON       PTSUNNY   52  32  46 W8        30.05F
CALGARY        PTSUNNY   50  23  34 SW6       30.07F
LETHBRIDGE     MOSUNNY   52  30  43 VRB3      30.11F
MEDICINE HAT   PTSUNNY   55  36  47 SW15G23   30.11F
MILK RIVER       N/A     54  27  35 W12         N/A
$$

REGIONAL REPORTS...SASKATCHEWAN

CITY           SKY/WX    TMP DP  RH WIND       PRES   REMARKS
SWIFT CURRENT  SUNNY     50  23  34 W10G17    30.15F
REGINA         MOSUNNY   52  30  43 W12G18    30.20S
SASKATOON      MOSUNNY   52  28  40 SW9       30.15F
CYPRESS HILLS    N/A     46  32  57 S12G18      N/A
VAL MARIE        N/A     52  27  37 S10G17      N/A
ROCKGLEN         N/A     52  28  40 SW12G17     N/A
$$



USA.gov is the U.S. government's official web portal to all federal, state and local government web resources and services.